Location: Boone Canyon
(38.3180°N, 119.2504°W)
Time: 17:52:41
(UTC+00:00)

Cosmos 841 Rocket - Pass Details

Date: 18 September 2020
Orbit: 746 x 773 km, 74.0° (Epoch: 19 October)

Event Time Altitude Azimuth Distance (km) Brightness Sun altitude
Rises 12:46:03 0° 191° (SSW) 3,195 6.5 -11.7°
Reaches altitude 10° 12:48:24 10° 190° (S) 2,279 5.7 -11.2°
Maximum altitude 12:53:33 74° 106° (ESE) 796 3.8 -10.2°
Drops below altitude 10° 12:58:47 10° 22° (NNE) 2,311 6.4 -9.2°
Sets 13:01:10 0° 21° (NNE) 3,245 7.2 -8.8°
